CZ-6A DEB

Satellite information

Favourite Embed

Satellite Type and Status

DEBRISIN ORBIT

Key statistics

Satellite CZ-6A DEB at a glance.

Uptime

1073

Days in orbit

Revolutions

≈ 14.8

Per day

Orbit

SSO

Sun Synchronous Orbit

Inclination

98.6

Latest

Satellite identification and parameters

Extended collection of information and parameters for CZ-6A DEB.

Object identification

Identified? True

Debris? True

Object name: CZ-6A DEB

International designator: 2022-151RK

Object number (NORAD): 54922

Object ID (CCSDS): 54922

Country: PEOPLES REPUBLIC OF CHINA (PRC)

Current information (Y/N): Y

RCS size: SMALL

Orbital parameters

Period: 97.063 minutes

Inclination: 98.6436 deg

SMA: 6996.213 km

Apoapsis: 652.172 km

Periapsis: 583.984 km

RAAN: 347.6848 deg

Eccentricy: 0.00487326

Argument of periapsis: 282.9692 deg

Mean anomaly: 76.6081 deg

Mean motion: 14.83570615 rev/day

Mean motion (dot): 0.00054915 rev/day2

B* drag term: 0.0064866003 1/REarth

Two-line elements (TLE)

Creation date: Oct. 18, 2025, 2:17 a.m.

Reference frame: TEME

Reference center: EARTH

Epoch: Oct. 17, 2025, 9:13 p.m. UTC

TLE line 0: 0 CZ-6A DEB

TLE line 1: 1 54922U 22151RK 25290.88410367 .00054915 00000-0 64866-2 0 9994

TLE line 2: 2 54922 98.6436 347.6848 0048733 282.9692 76.6081 14.83570615152009

Live tracking on map

Real-time ground track for satellite CZ-6A DEB.

In-orbit conjunctions

A list of the most updated potential collisions computed for object CZ-6A DEB.

Target Orbit TCA Probability of collision Miss distance Type
COROT SSO 2025-06-21 17:57:27 0.0001549372 259.0 (m) PAYLOAD
CZ-6A DEB SSO 2024-11-14 17:58:41 0.0003606204 902.0 (m) DEBRIS
COSMOS 2251 DEB LEO 2024-11-11 03:28:23 0.0001807808 297.0 (m) DEBRIS

Associated space launch

Chinese satellite reported for atmospheric/ocean/environmental/spatial parameter research purposes, details TBD.

CZ-6A DEB was lifted into orbit during the mission ‘Long March 6A | Yunhai 3’, on board a Long March 6A space rocket.

The launch took place on Nov. 11, 2022, 10:52 p.m. from Launch Complex 9A.

For more information about the launch, click the button.

Launch to space Long March 6A | Yunhai 3
Long March 6A | Yunhai 3

Agency: N/A

Status: Launch Successful

Launch date: Nov. 11, 2022, 10:52 p.m. UTC

Rocket: Long March 6A

Launch pad: Launch Complex 9A

Location: Taiyuan Satellite Launch Center, People's Republic of China

...

Latest news about this satellite

There are no fresh news available about this satellite. Check back as we update our databases every day.


Newsletter sign-up

Weekly statistics, charts and insights to help you stay on top of the space industry.